National Oceanic Atmosphere Administration National Weather Service Headquarters National Weather Service Headquarters
NOAA logo WFO Anchorage Scalable transition graphic NWS logo
Transition from title bar to navgation bar   Aviation Weather 19 AKST 
blankspace Home   |   Mobile   |   Social Media   |   Mesonet   |   Surface Map   |   Radar   |   Submit Storm Reports   |   News =04 GMT 

LocalForecast by City, St or Zip Code

spacer

Forecasts/Products
  Public
  Forecast Discussion
    - With Glossary
  Aviation
  Marine
  Hydrology(RFC)
  Rivers & Lakes AHPS
  Ice Desk
  TV Weather
  Fire Weather
  Avalanche
  Travel 511
  Graphical
  xml logo RSS Feeds
  Marine FTPMail

spacer

Data
  Mesonet
  Model Graphics
  Local Model
  Observations
  Marine Obs
  Satellite/Radar
  Vent Factor
  Soaring Index
  Weather Links

spacer

Climate
  PAFC Climate
  Interactive Climate
  PAFC Records
  Local
  National
  More

spacer

Outreach
  About Us
  Community Outreach
  Kids' Page
  Tour/Speaker Request
  Weather Classroom
  Social Media

spacer

Reports
  COOP Observers
  Local Storm Reports
  Spotter Page
  Submit a Storm Report

spacer

Miscellaneous
  Archived Alaska Weather Stories
  Student Career Opportunities
  Research Papers

spacer

Print Friendly/
Low Bandwidth

  Public Forecasts
  Marine Forecasts

spacer

Contact Us
  mailto pafcweb

spacer

Facebook Follow the National Weather Service in Alaska on Twitter
USA.gov is the U.S. government's official web portal to all federal, state and local government web resources and services.


 ICAO ID:   AAWU Graphics

Internet access to TAFs and METAR observations is for planning purposes only. We can not guarantee the timeliness of internet products. Before flying please get a formal pilot briefing (1-800-992-7433) and ALWAYS file a Flight Plan!Pilot briefings are provided to licensed aircraft pilots, ONLY! Others may not use the above number to obtain weather information.

Check out the Key to TAFs and METARs for help with decoding the information.

A 12 hour summary of TAFs can be found here.

PAKN TAF
PAKN 040309Z 0403/0424  VRB04KT P6SM FEW008 OVC015
      TEMPO 0403/0406 2SM BR OVC008
     FM041200 22008KT P6SM VCSH OVC015=


SPECI PAKN 040411Z 31003KT 8SM BKN009 OVC013 03/02 A2993 RMK AO2
 T00330022=
SPECI PAKN 040405Z 33004KT 9SM BKN010 OVC013 03/02 A2993 RMK AO2
     T00330022=
PAKN 040405Z 33004KT 9SM BKN010 OVC013 03/02 A2993=
METAR PAKN 040354Z 32003KT 10SM SCT010 OVC015 03/02 A2993 RMK AO2 SLP134
     T00330022=
METAR PAKN 040354Z 32003KT 10SM SCT010 OVC015 03/02 A2993=
SPECI PAKN 040307Z 30008KT 3SM BR SCT007 OVC016 03/02 A2992 RMK AO2
     T00330022=
PAKN 040307Z 30008KT 3SM BR SCT007 OVC016 03/02 A2992=
METAR PAKN 040254Z 30008KT 2 1/2SM BR BKN009 OVC020 03/02 A2992 RMK AO2
     SLP133 T00330022 55000=
METAR PAKN 040254Z 30008KT 2 1/2SM BR BKN009 OVC020 03/02 A2992=
METAR PAKN 040154Z 00000KT 10SM FEW016 BKN024 06/02 A2992 RMK AO2
 SLP131 T00560022=
METAR PAKN 040154Z 00000KT 10SM FEW016 BKN024 06/02 A2992=
SPECI PAKN 040144Z 30003KT 10SM FEW014 BKN024 06/02 A2992 RMK AO2
     T00560022=
PAKN 040144Z 30003KT 10SM FEW014 BKN024 06/02 A2992=
METAR PAKN 040054Z 00000KT 10SM FEW012 SCT027 BKN040 06/02 A2992 RMK AO2
     SLP130 T00560022=
METAR PAKN 040054Z 00000KT 10SM FEW012 SCT027 BKN040 06/02 A2992=
SPECI PAKN 040029Z 00000KT 10SM SCT012 BKN040 06/02 A2991 RMK AO2
     T00560022=
PAKN 040029Z 00000KT 10SM SCT012 BKN040 06/02 A2991=


National Weather Service
Anchorage Forecast Office
6930 Sand Lake Road
Anchorage, Ak 99502
(907) 266-5105 M-F/7-5pm
About Us
Career Opportunities
Glossary
Disclaimer
Privacy Policy
Credits
Alaska Weather Information Line:
1-800-472-0391